Home > Weather > Norman Wells > Past weeks

Flag for Canada Weather for the Past 2 Weeks in Norman Wells, Northwest Territories, Canada

Now
-11 °F

Light snow. Partly sunny.


Feels Like: -23 °F
Forecast: -16 / -9 °F
Wind: 5 mph from West

Location: Norman Wells

Current Time: Feb 5, 2016 at 6:12:17 PM

Latest Report: Feb 5, 2016 at 5:00 PM


Visibility: 15 mi

Pressure: 29.72 "Hg

Humidity: 76%

Dew point: -17 °F

Location of Norman WellsLocation

Historic Weather in Norman Wells — Graph

°F

Norman Wells Temperature Yesterday

Maximum temperature yesterday: -8 °F (at 2:00 AM)
Minimum temperature yesterday: -22 °F (at 8:00 AM)
Average temperature yesterday: -12 °F

High & Low Weather Summary for the Past Weeks

 TemperatureHumidityPressure
High10 °F (Jan 28, 1:00 PM)92% (Jan 28, 10:00 AM)30.35 "Hg (Jan 28, 10:00 AM)
Low-22 °F (Feb 4, 8:00 AM)68% (Feb 4, 9:00 AM)29.21 "Hg (Jan 28, 11:00 AM)
Average-2 °F80%29.87 "Hg
* Reported Jan 21 5:00 PM — Feb 5 5:00 PM, Norman Wells, Weather by CustomWeather, © 2016

Note: Actual official high and low records may vary slightly from our data, if they occured in-between our weather recording intervals... More about our weather records

Advertising

Norman Wells Weather History for the Previous 24 Hours

 ConditionsComfort  
Time TempWeatherWind HumidityBarometerVisibility
5:00 PM
Fri, Feb 5
-11 °FLight snow. Partly sunny.5 mph76%29.72 "Hg15 mi
4:00 PM-11 °FLight snow. Partly sunny.5 mph76%29.73 "Hg8 mi
3:00 PM-11 °FBroken clouds.7 mph76%29.73 "Hg8 mi
2:00 PM-13 °FSnow flurries. Low clouds.7 mph76%29.72 "Hg6 mi
1:00 PM-13 °FSnow flurries. Low clouds.8 mph76%29.72 "Hg6 mi
12:00 PM-13 °FSnow flurries. More clouds than sun.9 mph76%29.73 "Hg5 mi
11:00 AM-13 °FSnow flurries. Mostly cloudy.8 mph76%29.72 "Hg3 mi
10:00 AM-13 °FSnow flurries. Mostly cloudy.6 mph76%29.72 "Hg3 mi
9:00 AM-13 °FSnow flurries. Low clouds.7 mph76%29.72 "Hg4 mi
8:00 AM-13 °FSnow flurries. Mostly cloudy.6 mph76%29.72 "Hg4 mi
7:00 AM-13 °FLight snow. Low clouds.5 mph76%29.73 "Hg6 mi
6:45 AM-13 °FLight snow. Mostly cloudy.5 mph83%29.73 "Hg10 mi
6:00 AM-13 °FExtremely cold.5 mph83%29.75 "Hg10 mi
5:00 AM-11 °FLight snow. Mostly cloudy.5 mph76%29.77 "Hg10 mi
4:00 AM-11 °FLight snow. Overcast.5 mph76%29.78 "Hg10 mi
3:00 AM-11 °FLight snow. Overcast.6 mph76%29.79 "Hg10 mi
2:00 AM-11 °FLight snow. Overcast.3 mph76%29.79 "Hg10 mi
1:00 AM-11 °FLight snow. Overcast.3 mph76%29.80 "Hg10 mi
12:00 AM-11 °FLight snow. Overcast.2 mph84%29.82 "Hg10 mi
11:00 PM
Thu, Feb 4
-11 °FLight snow. Overcast.2 mph84%29.84 "Hg10 mi
10:00 PM-11 °FLight snow. Overcast.No wind84%29.85 "Hg10 mi
9:00 PM-11 °FLight snow. Overcast.3 mph84%29.87 "Hg10 mi
8:00 PM-11 °FLight snow. Overcast.3 mph76%29.88 "Hg10 mi
7:00 PM-11 °FLight snow. Overcast.No wind84%29.90 "Hg10 mi
6:00 PM-11 °FLight snow. Overcast.No wind84%29.93 "Hg10 mi
Weather by CustomWeather, © 2016

See weather overviewHow to use our weather pages